Tulsa Jones, OK

1:12 AM CDT on October 20, 2017 (GMT -0500)
Jones Jr.

Weather History for KRVS - April, 2014

Change the Weather History Date:

Saturday, April 5, 2014

  Actual Average (KTUL) Record (KTUL)
Temperature  
Mean Temperature 49 °F -  
Max Temperature 64 °F 68 °F 88 °F (2000)
Min Temperature 34 °F 43 °F 22 °F (1920)
Degree Days  
Heating Degree Days 16    
Moisture  
Dew Point 31 °F    
Average Humidity 50    
Maximum Humidity 85    
Minimum Humidity 28    
Precipitation  
Precipitation 0.00 in - - ()
Sea Level Pressure  
Sea Level Pressure 30.12 in    
Wind  
Wind Speed 3 mph (SE)    
Max Wind Speed 10 mph    
Max Gust Speed -    
Visibility 10 miles    
Events      
Averages and records for this station are not official NWS values.
T = Trace of Precipitation, MM = Missing Value Source: NWS Daily Summary

Daily Weather History Graph

Daily Weather History Graph

Search for Another Location

Airport or City:

Trip Planner

Search our weather history database for the weather conditions in past years. The results will help you decide how hot, cold, wet, or windy it might be!

Date:

Astronomy

Apr. 05, 2014 Rise Set
Actual Time 7:04 AM CDT 7:49 PM CDT
Civil Twilight 6:38 AM CDT 8:15 PM CDT
Nautical Twilight 6:07 AM CDT 8:45 PM CDT
Astronomical Twilight 5:36 AM CDT 9:17 PM CDT
Moon 11:19 AM CDT (4/5) 12:53 AM CDT (4/5)
Length of Visible Light 13h 36m
Length of Day
12h 44m
Waxing Crescent, 34% of the Moon is Illuminated
Apr 5
Waxing Crescent
Apr 7
First Quarter
Apr 15
Full
Apr 22
Last Quarter
Apr 29
New

Hourly Weather History & Observations

Time (CDT) Temp. Dew Point Humidity Pressure Visibility Wind Dir Wind Speed Gust Speed Precip Events Conditions
12:53 AM 41.0 °F 28.9 °F 62% 30.19 in 10.0 mi Calm Calm - N/A   Clear
1:53 AM 36.0 °F 28.9 °F 76% 30.18 in 10.0 mi Calm Calm - N/A   Clear
2:53 AM 36.0 °F 28.0 °F 73% 30.18 in 10.0 mi Calm Calm - N/A   Clear
3:53 AM 36.0 °F 28.9 °F 76% 30.17 in 10.0 mi Calm Calm - N/A   Clear
4:53 AM 34.0 °F 28.0 °F 79% 30.16 in 10.0 mi Calm Calm - N/A   Clear
5:53 AM 36.0 °F 28.9 °F 76% 30.16 in 10.0 mi Calm Calm - N/A   Clear
6:53 AM 34.0 °F 30.0 °F 85% 30.17 in 10.0 mi Calm Calm - N/A   Clear
7:53 AM 37.0 °F 30.9 °F 79% 30.19 in 10.0 mi Calm Calm - N/A   Clear
8:53 AM 46.0 °F 33.1 °F 61% 30.20 in 10.0 mi Calm Calm - N/A   Clear
9:53 AM 50.0 °F 34.0 °F 54% 30.21 in 10.0 mi ESE 6.9 mph - N/A   Clear
10:53 AM 54.0 °F 33.1 °F 45% 30.20 in 10.0 mi South 5.8 mph - N/A   Clear
11:53 AM 57.0 °F 30.9 °F 37% 30.19 in 10.0 mi SSE 8.1 mph - N/A   Clear
12:53 PM 59.0 °F 32.0 °F 36% 30.15 in 10.0 mi Variable 4.6 mph - N/A   Clear
1:53 PM 62.1 °F 34.0 °F 35% 30.12 in 10.0 mi East 6.9 mph - N/A   Clear
2:53 PM 63.0 °F 30.0 °F 29% 30.08 in 10.0 mi ESE 6.9 mph - N/A   Clear
3:53 PM 64.9 °F 30.9 °F 28% 30.05 in 10.0 mi East 6.9 mph - N/A   Clear
4:53 PM 64.0 °F 30.0 °F 28% 30.03 in 10.0 mi Variable 6.9 mph - N/A   Clear
5:53 PM 64.0 °F 30.9 °F 29% 30.01 in 10.0 mi South 8.1 mph - N/A   Clear
6:53 PM 63.0 °F 32.0 °F 31% 30.00 in 10.0 mi SSE 8.1 mph - N/A   Clear
7:53 PM 62.1 °F 33.1 °F 34% 30.00 in 10.0 mi SSE 5.8 mph - N/A   Clear
8:53 PM 59.0 °F 27.0 °F 29% 30.00 in 10.0 mi SE 6.9 mph - N/A   Clear
9:53 PM 57.9 °F 28.0 °F 32% 30.02 in 10.0 mi SE 6.9 mph - N/A   Scattered Clouds
10:53 PM 57.0 °F 33.1 °F 40% 30.08 in 10.0 mi South 10.4 mph - N/A   Overcast
11:53 PM 55.9 °F 34.0 °F 44% 30.10 in 10.0 mi South 5.8 mph - N/A   Overcast